Location: Albany
(35.0000°S, 118.0000°E)
Time: 01:30:11
(UTC-05:00)

ERS-1 Rocket - Visible Passes

Search period start: 05 March 2015 00:00
Search period end: 15 March 2015 01:00
Orbit: 755 x 758 km, 98.7° (Epoch: 03 March)

Date Brightness Start Highest point End Pass type
(mag) Time Alt. Az. Time Alt. Az. Time Alt. Az.
05 Mar 2.9 07:00:24 10° SSE 07:05:28 66° E 07:10:29 10° N visible
05 Mar 5.9 08:41:22 10° SW 08:43:46 13° WSW 08:45:52 10° W visible
06 Mar 3.9 06:21:53 10° SE 06:26:03 26° E 06:30:16 10° NNE visible
06 Mar 4.7 08:00:23 10° S 08:04:52 31° WSW 08:09:13 10° NW visible
07 Mar 3.1 07:20:42 10° S 07:25:48 77° WSW 07:30:50 10° NNW visible
08 Mar 3.3 07:41:44 10° SSE 07:46:31 41° E 07:51:17 10° N visible
08 Mar 5.4 09:21:19 10° SSW 09:25:03 20° WSW 09:28:35 10° WNW visible
09 Mar 4.4 07:03:55 10° SE 07:06:56 16° E 07:10:11 10° NE visible
09 Mar 3.9 08:41:10 10° S 08:46:04 48° WSW 08:50:53 10° NW visible
10 Mar 2.9 08:01:49 10° SSE 08:06:54 68° ENE 08:11:55 10° N visible
10 Mar 5.9 09:42:52 10° SW 09:45:11 13° WSW 09:47:13 10° W visible
11 Mar 3.9 07:23:18 10° SE 07:27:29 26° E 07:31:44 10° NNE visible
11 Mar 4.7 09:01:50 10° S 09:06:16 30° WSW 09:10:37 10° NW visible
12 Mar 3.1 08:22:07 10° S 08:27:12 76° WSW 08:32:15 10° NNW visible
13 Mar 3.3 07:43:07 10° SSE 07:47:56 42° E 07:52:43 10° N visible
13 Mar 5.4 09:22:46 10° SSW 09:26:27 20° WSW 09:29:57 10° WNW visible
14 Mar 4.4 07:05:16 10° SE 07:08:21 17° E 07:11:40 10° NE visible
14 Mar 3.9 08:42:35 10° S 08:47:28 47° WSW 08:52:17 10° NW visible
